FW1524 Weather Reports


time (UTC)temp
C
wind
direction
speed
KPH
gust
KPH
rain 1hr
cm
rain 24hr
cm
rain mn
cm
humidity
%
barometer
mb
20260906204552 23 243 0.0 1.6 0.00 0.03 0.03 53 1014.5
20260906203031 23 11 0.0 1.6 0.00 0.03 0.03 53 1014.5
20260906201527 23 53 0.0 1.6 0.00 0.03 0.03 53 1014.6
20260906200028 23 25 0.0 0.0 0.00 0.03 0.03 53 1014.5
20260906194524 23 342 0.0 0.0 0.00 0.03 0.03 53 1014.5
20260906193020 23 22 0.0 1.6 0.00 0.03 0.03 52 1014.4
20260906191515 23 343 0.0 1.6 0.00 0.03 0.03 52 1014.4
20260906190058 23 14 0.0 1.6 0.00 0.03 0.03 51 1014.4
20260906184555 23 54 0.0 0.0 0.00 0.03 0.03 51 1014.4
20260906183050 23 360 0.0 1.6 0.00 0.03 0.03 51 1014.6
20260906181553 23 29 0.0 3.2 0.00 0.03 0.03 48 1014.3
20260906174542 23 22 0.0 6.4 0.00 0.03 0.03 46 1014.6
20260906173037 23 17 0.0 1.6 0.00 0.03 0.03 41 1014.7
20260906171540 23 52 0.0 1.6 0.00 0.03 0.03 33 1014.9
20260906170044 23 41 0.0 1.6 0.00 0.03 0.03 19 1014.9
20260906164535 23 42 0.0 0.0 0.00 0.03 0.03 5 1014.9
20260906163030 22 10 0.0 3.2 0.00 0.03 0.03 1 1015.1
20260906161528 22 34 0.0 1.6 0.00 0.03 0.03 1 1015.1
20260906160017 22 59 0.0 1.6 0.00 0.03 0.03 1 1015.3
20260906154508 21 26 0.0 0.0 0.00 0.03 0.03 1 1015.4
20260906153003 22 52 0.0 1.6 0.00 0.03 0.03 1 1015.2
20260906151602 21 5 0.0 0.0 0.00 0.03 0.03 1 1015.2
20260906150003 21 11 0.0 0.0 0.00 0.03 0.03 1 1015.3
20260906144601 20 74 0.0 0.0 0.00 0.03 0.03 1 1015.1
20260906143057 19 313 0.0 1.6 0.00 0.03 0.03 1 1015.1
20260906141551 19 12 0.0 6.4 0.00 0.03 0.03 1 1015.3
20260906140056 18 5 0.0 1.6 0.00 0.03 0.03 1 1015.0
20260906134543 17 360 0.0 0.0 0.00 0.03 0.03 1 1015.2
20260906133103 16 51 0.0 1.6 0.00 0.03 0.03 1 1015.1
20260906131533 16 79 0.0 0.0 0.00 0.03 0.03 1 1015.0
20260906130027 16 80 0.0 1.6 0.00 0.03 0.03 1 1015.1
20260906124522 16 213 0.0 0.0 0.00 0.03 0.03 1 1014.9
20260906123018 16 213 0.0 0.0 0.00 0.03 0.03 1 1014.8
20260906121515 16 213 0.0 0.0 0.00 0.03 0.03 1 1014.8
20260906120012 15 213 0.0 0.0 0.00 0.03 0.03 1 1014.6
20260906114516 15 213 0.0 0.0 0.00 0.03 0.03 1 1014.4
20260906113005 15 213 0.0 0.0 0.00 0.03 0.03 1 1014.5
20260906111613 15 213 0.0 0.0 0.00 0.03 0.03 1 1014.5
20260906110057 15 213 0.0 0.0 0.00 0.03 0.03 1 1014.3
20260906104552 15 213 0.0 0.0 0.00 0.03 0.03 1 1014.2
20260906101546 14 213 0.0 0.0 0.00 0.03 0.03 1 1013.8
20260906100042 14 213 0.0 0.0 0.00 0.03 0.03 1 1013.6
20260906094534 13 213 0.0 0.0 0.00 0.03 0.03 1 1013.6
20260906091531 13 213 0.0 0.0 0.00 0.03 0.03 1 1013.1
20260906090028 13 213 0.0 0.0 0.00 0.03 0.03 1 1013.1
20260906084525 13 213 0.0 0.0 0.00 0.03 0.03 1 1012.9
20260906081518 14 213 0.0 0.0 0.03 0.03 0.03 1 1012.7
20260906080013 14 213 0.0 0.0 0.03 0.03 0.03 1 1012.6
20260906074506 14 213 0.0 0.0 0.03 0.03 0.03 1 1012.5
20260906071554 14 213 0.0 0.0 0.00 0.00 0.00 1 1012.7
20260906070056 14 213 0.0 0.0 0.00 0.00 0.00 1 1012.6
20260906064549 14 213 0.0 0.0 0.00 0.00 0.00 1 1012.6
20260906061538 15 213 0.0 0.0 0.00 0.00 0.00 1 1012.8
20260906060034 15 213 0.0 0.0 0.00 0.00 0.00 1 1012.8
20260906054542 15 213 0.0 0.0 0.00 0.00 0.00 1 1012.8
20260906051522 15 213 0.0 0.0 0.00 0.00 0.00 1 1012.8
20260906050018 15 213 0.0 0.0 0.00 0.00 0.00 1 1012.7
20260906044516 15 213 0.0 0.0 0.00 0.00 0.00 1 1012.7
20260906041507 16 213 0.0 0.0 0.00 0.00 0.00 1 1012.7
20260906040004 16 213 0.0 0.0 0.00 0.00 0.00 1 1012.7
20260906034610 16 213 0.0 0.0 0.00 0.00 0.00 1 1012.7
20260906031553 16 213 0.0 0.0 0.00 0.00 0.00 1 1012.5
20260906030049 16 213 0.0 0.0 0.00 0.00 0.00 1 1012.4
20260906024546 16 213 0.0 0.0 0.00 0.00 0.00 1 1012.4
20260906021537 17 213 0.0 0.0 0.00 0.00 0.00 1 1012.4
20260906020034 17 213 0.0 0.0 0.00 0.00 0.00 1 1012.2
20260906014529 17 213 0.0 0.0 0.00 0.00 0.00 1 1012.0
20260906011526 18 213 0.0 0.0 0.00 0.00 0.00 1 1011.9
20260906010022 18 213 0.0 0.0 0.00 0.00 0.00 1 1011.9
20260906004518 18 213 0.0 0.0 0.00 0.00 0.00 1 1011.8
20260906001518 19 33 0.0 0.0 0.00 0.00 0.00 1 1011.4
20260906000018 19 33 0.0 0.0 0.00 0.00 0.00 1 1011.4
20260905234516 20 33 0.0 0.0 0.00 0.00 0.00 1 1011.3
20260905231559 21 33 0.0 0.0 0.00 0.00 0.00 1 1011.5
20260905230100 22 33 0.0 0.0 0.00 0.00 0.00 1 1011.3
20260905224611 22 33 0.0 0.0 0.00 0.00 0.00 1 1011.2
20260905223151 22 33 0.0 0.0 0.00 0.00 0.00 1 1011.1
20260905221551 23 33 0.0 0.0 0.00 0.00 0.00 1 1010.9
20260905220051 23 34 0.0 0.0 0.00 0.00 0.00 1 1010.8
20260905214551 23 34 0.0 0.0 0.00 0.00 0.00 1 1010.6
20260905213150 23 16 0.0 0.0 0.00 0.00 0.00 1 1010.4
20260905211550 23 28 0.0 0.0 0.00 0.00 0.00 1 1010.5
20260905210053 23 284 0.0 0.0 0.00 0.00 0.00 1 1010.3